Station SXHW3 - Saxon Harbor, WI Image indicating link to RSS feed of recent meteorological observations for station SXHW3


Conditions at SXHW3 as of
(2:40 am CDT)
0740 GMT on 04/21/2024:
     

Click on the graph icon in the table below to see a time series plot of the last five days of that observation.

5-day plot - Wind Direction Wind Direction (WDIR): SW ( 220 deg true )
5-day plot - Wind Speed Wind Speed (WSPD): 6.0 kts
5-day plot - Wind Gust Wind Gust (GST): 9.9 kts
5-day plot - Atmospheric Pressure Atmospheric Pressure (PRES):30.06 in
5-day plot - Air Temperature Air Temperature (ATMP): 36.9 °F
5-day plot - Wind Chill Wind Chill (CHILL): 31.5 °F
5-day plot - Wind Speed at 10 Meters Wind Speed at 10 meters (WSPD10M): 5.8 kts
5-day plot - Wind Speed at 20 Meters Wind Speed at 20 meters (WSPD20M): 5.8 kts
5-day plot -  Wind Speed, Wind Gust and Atmospheric Pressure Combined plot of Wind Speed, Gust, and Air Pressure
Previous observations
TIME
(CDT)
5-day plot - Wind Direction
WDIR
 
5-day plot - Wind Speed
WSPD
kts
5-day plot - Wind Gust
GST
kts
5-day plot - Wave Height
WVHT
ft
5-day plot - Dominant Wave Period
DPD
sec
5-day plot - Average Wave Period
APD
sec
5-day plot - Mean Wave Direction
MWD
 
5-day plot - Atmospheric Pressure
PRES
in
5-day plot - Pressure Tendency
PTDY
in
5-day plot - Air Temperature
ATMP
°F
5-day plot - Water Temperature
WTMP
°F
5-day plot - Dew Point
DEWP
°F
5-day plot - Salinity
SAL
psu
5-day plot - Visibility
VIS
nmi
5-day plot - Tide (above MLLW)
TIDE
ft
2024-04-21 02:30 amSSW 6.0 9.9----30.06- 37.0-----
2024-04-21 02:20 amSSW 7.0 8.0----30.06- 36.1-----
2024-04-21 02:10 amSSW 6.0 8.0----30.06- 35.8-----
2024-04-21 02:00 amSSW 6.0 8.0----30.07-0.03 35.4-----
2024-04-21 01:50 amSSW 4.1 8.0----30.07- 35.4-----
2024-04-21 01:40 am SW 6.0 9.9----30.07- 36.3-----
2024-04-21 01:30 am SW 5.1 9.9----30.07- 36.3-----
2024-04-21 01:20 am SW 4.1 8.0----30.08- 35.8-----
2024-04-21 01:10 am SW 5.1 8.0----30.08- 34.9-----
2024-04-21 01:00 am SW 5.1 6.0----30.08-0.01 36.7-----
2024-04-21 12:50 am SW 4.1 7.0----30.09- 36.7-----
2024-04-21 12:40 am SW 5.1 7.0----30.09- 37.9-----
2024-04-21 12:30 am SW 5.1 8.0----30.09- 38.5-----
2024-04-21 12:20 amWSW 5.1 8.9----30.09- 38.7-----
2024-04-21 12:10 amWSW 5.1 8.0----30.09- 39.2-----
2024-04-21 12:00 amWSW 5.1 8.9----30.09+0.00 39.4-----
2024-04-20 11:50 pmWSW 4.1 8.0----30.10- 39.0-----
2024-04-20 11:40 pmWSW 5.1 8.0----30.10- 40.3-----
2024-04-20 11:30 pm W 5.1 11.1----30.10- 41.2-----
2024-04-20 11:20 pm W 6.0 8.9----30.10- 41.4-----
2024-04-20 11:10 pm W 7.0 11.1----30.10- 41.7-----
2024-04-20 11:00 pm W 8.0 12.0----30.10+0.03 42.1-----
2024-04-20 10:50 pm W 6.0 8.9----30.10- 41.0-----
2024-04-20 10:40 pm W 5.1 9.9----30.09- 41.2-----
2024-04-20 10:30 pmWSW 2.9 9.9----30.10- 41.4-----
2024-04-20 10:20 pm W 5.1 9.9----30.09- 41.4-----
2024-04-20 10:10 pmWSW 5.1 8.9----30.10- 42.6-----
2024-04-20 10:00 pm W 6.0 8.0----30.09+0.02 42.6-----
2024-04-20 09:50 pmWSW 5.1 11.1----30.10- 41.4-----
2024-04-20 09:40 pmWSW 4.1 6.0----30.10- 41.4-----
2024-04-20 09:30 pm SW 2.9 12.0----30.09- 41.7-----
2024-04-20 09:20 pm SW 4.1 6.0----30.09- 39.7-----
2024-04-20 09:10 pm SW 4.1 5.1----30.09- 39.2-----
2024-04-20 09:00 pmSSW 2.9 4.1----30.09+0.00 39.4-----
2024-04-20 08:50 pm SW 2.9 7.0----30.08- 40.8-----
2024-04-20 08:40 pmSSW 2.9 6.0----30.08- 41.7-----
2024-04-20 08:30 pmSSW 2.9 4.1----30.08- 40.8-----
2024-04-20 08:20 pm SW 2.9 6.0----30.07- 43.7-----
2024-04-20 08:10 pm SW 2.9 6.0----30.07- 44.2-----
2024-04-20 08:00 pm SW 2.9 5.1----30.07-0.03 44.6-----
2024-04-20 07:50 pmWSW 2.9 7.0----30.07- 45.1-----
2024-04-20 07:40 pmWSW 4.1 7.0----30.07- 45.3-----
2024-04-20 07:30 pm W 2.9 8.9----30.07- 45.5-----
2024-04-20 07:20 pm W 6.0 8.9----30.07- 45.5-----
2024-04-20 07:10 pm W 6.0 12.0----30.07- 45.7-----
2024-04-20 07:00 pm W 6.0 12.0----30.07-0.04 45.5-----
2024-04-20 06:50 pm W 7.0 14.0----30.08- 45.7-----
2024-04-20 06:40 pm W 8.9 15.9----30.08- 45.9-----
2024-04-20 06:30 pm W 7.0 12.0----30.08- 46.0-----
2024-04-20 06:20 pmWNW 11.1 15.0----30.08- 45.9-----
2024-04-20 06:10 pm W 9.9 14.0----30.08- 46.0-----
2024-04-20 06:00 pmWNW 11.1 15.9----30.09-0.04 45.7-----
2024-04-20 05:50 pm W 7.0 12.0----30.09- 45.3-----
2024-04-20 05:40 pmWNW 8.9 17.1----30.09- 44.4-----
2024-04-20 05:30 pm W 8.0 14.0----30.09- 45.0-----
2024-04-20 05:20 pmWNW 12.0 19.0----30.09- 44.4-----
2024-04-20 05:10 pm W 8.0 14.0----30.10- 44.1-----
2024-04-20 05:00 pmWNW 8.9 18.1----30.10- 43.7-----
2024-04-20 04:50 pmWNW 11.1 17.1----30.10- 43.3-----
2024-04-20 04:40 pmWNW 9.9 15.0----30.10- 43.2-----
2024-04-20 04:30 pm W 7.0 20.0----30.11- 42.4-----
2024-04-20 04:20 pmWNW 9.9 15.0----30.11- 42.1-----
2024-04-20 04:10 pm W 8.0 19.0----30.11- 42.6-----
2024-04-20 04:00 pmWNW 8.9 17.1----30.11-0.04 41.4-----
2024-04-20 03:50 pmWNW 12.0 15.9----30.12- 41.5-----
2024-04-20 03:40 pmWNW 15.0 18.1----30.12- 40.8-----
2024-04-20 03:30 pm NW 11.1 18.1----30.12- 41.0-----
2024-04-20 03:20 pmWNW 12.0 15.9----30.13- 40.5-----
2024-04-20 03:10 pmWNW 11.1 19.0----30.12- 40.3-----
2024-04-20 03:00 pm NW 8.9 20.0----30.13-0.02 39.9-----
2024-04-20 02:50 pmWNW 7.0 18.1----30.13- 39.9-----
2024-04-20 02:40 pm NW 9.9 17.1----30.14- 39.7-----
2024-04-20 01:40 pm W 8.0 12.0----30.15- 37.2-----
2024-04-20 01:30 pm W 7.0 18.1----30.16- 36.7-----
2024-04-20 01:20 pm W 8.0 14.0----30.16- 36.3-----
2024-04-20 01:10 pm W 8.0 14.0----30.16- 36.5-----
2024-04-20 01:00 pmWNW 8.9 18.1----30.15+0.01 36.5-----
2024-04-20 12:50 pmWNW 8.9 18.1----30.15- 36.3-----
2024-04-20 12:40 pmWNW 8.0 18.1----30.15- 36.3-----
2024-04-20 12:30 pmWNW 8.9 15.0----30.15- 35.8-----
2024-04-20 12:20 pm W 7.0 15.0----30.16- 35.6-----
2024-04-20 12:10 pmWNW 14.0 18.1----30.15- 35.6-----
2024-04-20 12:00 pm NW 15.0 19.0----30.15+0.02 35.6-----
2024-04-20 11:50 am NW 15.9 20.0----30.16- 35.2-----
2024-04-20 11:40 amWNW 12.0 17.1----30.16- 35.2-----
2024-04-20 11:30 amWNW 8.9 14.0----30.16- 35.1-----
2024-04-20 11:20 amWNW 12.0 15.0----30.16- 35.2-----
2024-04-20 11:10 amWNW 8.9 15.9----30.16- 35.1-----
2024-04-20 11:00 amWNW 9.9 15.0----30.15+0.03 34.7-----
2024-04-20 10:50 amWNW 9.9 17.1----30.16- 34.7-----
2024-04-20 10:40 amWNW 8.0 17.1----30.16- 34.5-----
2024-04-20 10:30 amWNW 12.0 18.1----30.15- 34.5-----
2024-04-20 10:20 amWNW 12.0 19.0----30.15- 34.3-----
2024-04-20 10:10 amWNW 12.0 17.1----30.15- 34.3-----
2024-04-20 10:00 am NW 14.0 18.1----30.14+0.05 34.3-----
2024-04-20 09:50 amWNW 14.0 21.0----30.14- 34.3-----
2024-04-20 09:40 amWNW 12.0 22.0----30.14- 34.2-----
2024-04-20 09:30 am NW 17.1 22.9----30.14- 34.2-----
2024-04-20 09:20 amWNW 20.0 22.9----30.13- 34.5-----
2024-04-20 09:10 am NW 17.1 22.9----30.13- 34.5-----
2024-04-20 09:00 am NW 18.1 22.0----30.13+0.05 34.3-----
2024-04-20 08:50 am NW 17.1 20.0----30.13- 34.3-----
2024-04-20 08:40 amWNW 14.0 20.0----30.13- 34.2-----
2024-04-20 08:30 am NW 15.9 21.0----30.13- 34.2-----
2024-04-20 08:20 am NW 15.0 19.0----30.12- 34.2-----
2024-04-20 08:10 am NW 15.0 20.0----30.12- 34.3-----
2024-04-20 08:00 am W 8.9 14.0----30.12+0.06 33.4-----
2024-04-20 07:50 amWNW 12.0 17.1----30.11- 33.8-----
2024-04-20 07:40 amWNW 8.9 19.0----30.11- 33.8-----
2024-04-20 07:30 am W 12.0 18.1----30.10- 33.6-----
2024-04-20 07:20 amWNW 8.0 15.9----30.10- 33.8-----
2024-04-20 07:10 am W 9.9 17.1----30.10- 33.4-----
2024-04-20 07:00 am W 8.9 15.9----30.09- 33.4-----
2024-04-20 06:50 amWNW 11.1 17.1----30.09- 33.6-----
2024-04-20 06:40 am W 8.0 15.0----30.09- 33.6-----
2024-04-20 06:30 am W 8.0 13.0----30.09- 33.6-----
2024-04-20 06:20 am W 12.0 15.9----30.09- 33.4-----
2024-04-20 06:10 am W 11.1 18.1----30.08- 33.6-----
2024-04-20 06:00 am W 6.0 14.0----30.08+0.04 33.4-----
2024-04-20 05:50 am W 9.9 15.0----30.07- 33.4-----
2024-04-20 05:40 am W 8.0 9.9----30.07- 33.3-----
2024-04-20 05:30 am W 5.1 9.9----30.06- 33.3-----
2024-04-20 05:20 am W 4.1 13.0----30.06- 33.6-----
2024-04-20 05:10 am W 7.0 13.0----30.06- 33.6-----
2024-04-20 05:00 am W 7.0 14.0----30.06+0.03 33.6-----
2024-04-20 04:50 am W 7.0 11.1----30.06- 33.8-----
2024-04-20 04:40 am W 7.0 8.9----30.06- 33.3-----
2024-04-20 04:30 am W 6.0 8.9----30.06- 32.9-----
2024-04-20 03:40 am W 5.1 7.0----30.05- 32.5-----
2024-04-20 03:30 amWSW 2.9 6.0----30.04- 32.7-----
2024-04-20 03:20 amWSW 4.1 7.0----30.04- 32.7-----
2024-04-20 03:10 amWSW 4.1 8.9----30.04- 32.9-----
2024-04-20 03:00 amWSW 4.1 13.0----30.04+0.02 32.9-----
2024-04-20 02:50 am SW 5.1 12.0----30.03- 33.1-----